Location: Acequia del Cap
(41.7000°N, 0.6167°E)
Time: 15:32:10
(UTC+00:00)

Nadezhda 4 Rocket - Pass Details

Date: 07 August 2020
Orbit: 949 x 993 km, 82.9° (Epoch: 22 September)

Event Time Altitude Azimuth Distance (km) Brightness Sun altitude
Rises 00:26:38 0° 355° (N) 3,709 8.1 -31.7°
Reaches altitude 10° 00:29:13 10° 359° (N) 2,752 7.2 -31.7°
Enters shadow 00:35:22 60° 75° (ENE) 1,112 4.2 -31.5°
